Tunica, MS

11:05 AM CST on January 23, 2018 (GMT -0600)
Tunica

Weather History for KUTA - May, 2013

Change the Weather History Date:

Tuesday, May 14, 2013

  Actual Average (KAWM) Record (KAWM)
Temperature  
Mean Temperature 70 °F -  
Max Temperature 86 °F 81 °F 91 °F (1988)
Min Temperature 55 °F 60 °F 45 °F (1971)
Cooling Degree Days 6    
Growing Degree Days 20 (Base 50)    
Moisture  
Dew Point 53 °F    
Average Humidity 56    
Maximum Humidity 88    
Minimum Humidity 27    
Precipitation  
Precipitation 0.00 in - - ()
Sea Level Pressure  
Sea Level Pressure 30.11 in    
Wind  
Wind Speed 10 mph (SSW)    
Max Wind Speed 21 mph    
Max Gust Speed 26 mph    
Visibility 10 miles    
Events      
Averages and records for this station are not official NWS values.
T = Trace of Precipitation, MM = Missing Value Source: NWS Daily Summary

Daily Weather History Graph

Daily Weather History Graph

Search for Another Location

Airport or City:

Trip Planner

Search our weather history database for the weather conditions in past years. The results will help you decide how hot, cold, wet, or windy it might be!

Date:

Astronomy

May. 14, 2013 Rise Set
Actual Time 5:59 AM CDT 7:56 PM CDT
Civil Twilight 5:31 AM CDT 8:24 PM CDT
Nautical Twilight 4:57 AM CDT 8:58 PM CDT
Astronomical Twilight 4:21 AM CDT 9:35 PM CDT
Moon 9:38 AM CDT (5/14) 11:45 PM CDT (5/14)
Length of Visible Light 14h 53m
Length of Day
13h 57m
Waxing Crescent, 19% of the Moon is Illuminated
May 14
Waxing Crescent
May 17
First Quarter
May 24
Full
May 31
Last Quarter
Jun 8
New

Hourly Weather History & Observations

Time (CDT) Temp. Heat Index Dew Point Humidity Pressure Visibility Wind Dir Wind Speed Gust Speed Precip Events Conditions
12:35 AM 60.8 °F - 51.8 °F 72% 30.15 in 10.0 mi South 8.1 mph - N/A   Clear
12:55 AM 60.8 °F - 51.8 °F 72% 30.14 in 10.0 mi South 8.1 mph - N/A   Clear
1:15 AM 60.8 °F - 51.8 °F 72% 30.14 in 10.0 mi South 6.9 mph - N/A   Clear
1:35 AM 59.0 °F - 51.8 °F 77% 30.13 in 10.0 mi South 6.9 mph - N/A   Clear
1:55 AM 59.0 °F - 51.8 °F 77% 30.13 in 10.0 mi South 8.1 mph - N/A   Clear
2:15 AM 59.0 °F - 51.8 °F 77% 30.13 in 10.0 mi South 8.1 mph - N/A   Clear
2:35 AM 57.2 °F - 51.8 °F 82% 30.13 in 10.0 mi South 6.9 mph - N/A   Clear
2:55 AM 59.0 °F - 51.8 °F 77% 30.12 in 10.0 mi South 6.9 mph - N/A   Clear
3:15 AM 57.2 °F - 51.8 °F 82% 30.13 in 10.0 mi South 6.9 mph - N/A   Clear
3:35 AM 57.2 °F - 51.8 °F 82% 30.12 in 10.0 mi South 6.9 mph - N/A   Clear
3:55 AM 55.4 °F - 51.8 °F 88% 30.12 in 10.0 mi South 5.8 mph - N/A   Clear
4:15 AM 57.2 °F - 51.8 °F 82% 30.12 in 10.0 mi South 5.8 mph - N/A   Clear
4:55 AM 55.4 °F - 51.8 °F 88% 30.12 in 10.0 mi South 6.9 mph - N/A   Clear
5:15 AM 55.4 °F - 51.8 °F 88% 30.12 in 10.0 mi South 5.8 mph - N/A   Clear
5:35 AM 55.4 °F - 51.8 °F 88% 30.13 in 10.0 mi South 5.8 mph - N/A   Clear
5:55 AM 55.4 °F - 51.8 °F 88% 30.13 in 10.0 mi South 6.9 mph - N/A   Clear
6:15 AM 57.2 °F - 51.8 °F 82% 30.13 in 10.0 mi South 5.8 mph - N/A   Clear
6:35 AM 57.2 °F - 51.8 °F 82% 30.13 in 10.0 mi South 5.8 mph - N/A   Clear
6:55 AM 59.0 °F - 53.6 °F 82% 30.14 in 10.0 mi South 4.6 mph - N/A   Clear
7:15 AM 60.8 °F - 53.6 °F 77% 30.14 in 10.0 mi South 5.8 mph - N/A   Clear
7:35 AM 62.6 °F - 53.6 °F 72% 30.15 in 10.0 mi South 6.9 mph - N/A   Clear
7:55 AM 62.6 °F - 53.6 °F 72% 30.15 in 10.0 mi South 8.1 mph - N/A   Clear
8:15 AM 64.4 °F - 53.6 °F 68% 30.16 in 10.0 mi SSW 11.5 mph - N/A   Clear
8:35 AM 68.0 °F - 55.4 °F 64% 30.16 in 10.0 mi SSW 11.5 mph - N/A   Clear
8:55 AM 69.8 °F - 53.6 °F 56% 30.16 in 10.0 mi SW 12.7 mph - N/A   Clear
9:15 AM 71.6 °F - 53.6 °F 53% 30.16 in 10.0 mi SSW 13.8 mph - N/A   Clear
9:35 AM 73.4 °F - 53.6 °F 50% 30.16 in 10.0 mi SSW 12.7 mph - N/A   Clear
9:55 AM 73.4 °F - 53.6 °F 50% 30.16 in 10.0 mi SW 17.3 mph - N/A   Clear
10:15 AM 75.2 °F - 55.4 °F 50% 30.16 in 10.0 mi SW 17.3 mph 21.9 mph N/A   Clear
10:35 AM 77.0 °F - 55.4 °F 47% 30.16 in 10.0 mi SW 18.4 mph 23.0 mph N/A   Clear
10:55 AM 77.0 °F - 55.4 °F 47% 30.16 in 10.0 mi SW 16.1 mph 19.6 mph N/A   Clear
11:15 AM 77.0 °F - 55.4 °F 47% 30.16 in 10.0 mi SW 16.1 mph 24.2 mph N/A   Clear
11:35 AM 78.8 °F - 57.2 °F 47% 30.16 in 10.0 mi SW 16.1 mph 20.7 mph N/A   Clear
11:55 AM 78.8 °F - 55.4 °F 44% 30.15 in 10.0 mi SW 13.8 mph 20.7 mph N/A   Clear
12:15 PM 80.6 °F 80.8 °F 57.2 °F 45% 30.15 in 10.0 mi SW 15.0 mph 19.6 mph N/A   Clear
12:35 PM 80.6 °F 80.5 °F 55.4 °F 42% 30.14 in 10.0 mi SW 18.4 mph - N/A   Clear
12:55 PM 80.6 °F 80.5 °F 55.4 °F 42% 30.13 in 10.0 mi SW 17.3 mph - N/A   Clear
1:15 PM 82.4 °F 82.0 °F 57.2 °F 42% 30.12 in 10.0 mi SSW 15.0 mph - N/A   Clear
1:35 PM 82.4 °F 82.5 °F 59.0 °F 45% 30.11 in 10.0 mi SSW 20.7 mph - N/A   Clear
1:55 PM 82.4 °F 82.0 °F 57.2 °F 42% 30.11 in 10.0 mi SSW 18.4 mph 24.2 mph N/A   Clear
2:15 PM 82.4 °F 81.7 °F 55.4 °F 39% 30.10 in 10.0 mi SSW 16.1 mph 23.0 mph N/A   Clear
2:35 PM 82.4 °F 81.7 °F 55.4 °F 39% 30.10 in 10.0 mi SSW 17.3 mph 21.9 mph N/A   Clear
2:55 PM 84.2 °F 83.0 °F 55.4 °F 37% 30.09 in 10.0 mi SW 16.1 mph 25.3 mph N/A   Clear
3:15 PM 86.0 °F 84.2 °F 53.6 °F 33% 30.09 in 10.0 mi SW 19.6 mph 24.2 mph N/A   Clear
3:35 PM 86.0 °F - 50.0 °F 29% 30.08 in 10.0 mi SW 20.7 mph 26.5 mph N/A   Clear
3:55 PM 86.0 °F - 50.0 °F 29% 30.07 in 10.0 mi SW 17.3 mph 23.0 mph N/A   Clear
4:15 PM 86.0 °F - 48.2 °F 27% 30.07 in 10.0 mi WSW 17.3 mph 25.3 mph N/A   Clear
4:35 PM 86.0 °F - 50.0 °F 29% 30.07 in 10.0 mi SW 15.0 mph 25.3 mph N/A   Clear
4:55 PM 86.0 °F - 50.0 °F 29% 30.06 in 10.0 mi WSW 16.1 mph - N/A   Clear
5:15 PM 86.0 °F - 50.0 °F 29% 30.06 in 10.0 mi SW 19.6 mph 23.0 mph N/A   Clear
5:35 PM 86.0 °F - 50.0 °F 29% 30.06 in 10.0 mi SW 15.0 mph - N/A   Clear
5:55 PM 86.0 °F - 50.0 °F 29% 30.05 in 10.0 mi SW 17.3 mph 21.9 mph N/A   Clear
6:15 PM 84.2 °F - 50.0 °F 30% 30.05 in 10.0 mi SW 16.1 mph - N/A   Clear
6:35 PM 82.4 °F - 51.8 °F 35% 30.05 in 10.0 mi SW 10.4 mph 18.4 mph N/A   Clear
6:55 PM 82.4 °F 81.4 °F 53.6 °F 37% 30.05 in 10.0 mi SSW 10.4 mph - N/A   Clear
7:15 PM 80.6 °F 80.3 °F 53.6 °F 39% 30.05 in 10.0 mi SSW 8.1 mph - N/A   Clear
7:35 PM 78.8 °F - 53.6 °F 42% 30.05 in 10.0 mi SSW 8.1 mph - N/A   Clear
7:55 PM 77.0 °F - 53.6 °F 44% 30.05 in 10.0 mi SSW 8.1 mph - N/A   Clear
8:15 PM 73.4 °F - 53.6 °F 50% 30.05 in 10.0 mi SSW 6.9 mph - N/A   Clear
8:35 PM 73.4 °F - 53.6 °F 50% 30.06 in 10.0 mi South 8.1 mph - N/A   Clear
8:55 PM 71.6 °F - 53.6 °F 53% 30.06 in 10.0 mi SSW 9.2 mph - N/A   Clear
9:15 PM 71.6 °F - 53.6 °F 53% 30.06 in 10.0 mi SSW 9.2 mph - N/A   Clear
9:35 PM 71.6 °F - 53.6 °F 53% 30.07 in 10.0 mi SSW 9.2 mph - N/A   Clear
9:55 PM 71.6 °F - 51.8 °F 50% 30.08 in 10.0 mi SSW 9.2 mph - N/A   Clear
10:15 PM 71.6 °F - 53.6 °F 53% 30.08 in 10.0 mi SSW 10.4 mph - N/A   Clear
10:35 PM 71.6 °F - 51.8 °F 50% 30.08 in 10.0 mi South 8.1 mph - N/A   Clear
10:55 PM 69.8 °F - 51.8 °F 53% 30.08 in 10.0 mi South 8.1 mph - N/A   Clear
11:15 PM 64.4 °F - 53.6 °F 68% 30.08 in 10.0 mi South 6.9 mph - N/A   Clear
11:35 PM 64.4 °F - 53.6 °F 68% 30.08 in 10.0 mi South 6.9 mph - N/A   Clear
11:55 PM 68.0 °F - 53.6 °F 60% 30.08 in 10.0 mi South 8.1 mph - N/A   Clear